{"data":{"norad_id":66295,"intl_designator":"2025-248C","name":"LEMUR-2-AFFIE-WAUWIE","alt_names":[],"object_type":"PAYLOAD","status":"ACTIVE","operator":null,"country":"US","launch_date":"2025-11-02","launch_site_code":"AFETR","launch_vehicle":null,"mission":null,"orbit_class":"UNKNOWN","rcs_meters":null,"size_class":null,"mass_kg":null,"dimensions":null,"purposes":["earth_obs"],"wikipedia_slug":null,"has_3d_model":false,"image_url":null,"decayed_at":null,"tle_current":{"epoch":"2026-09-20T04:40:13.971360Z","epoch_age_seconds":40930,"freshness":"FRESH","line1":"1 66295U 25248C   26263.19460615  .00013847  00000+0  47078-3 0  9991","line2":"2 66295  45.3924 318.9456 0007712 285.3703  74.6335 15.30440669 49131","mean_motion":15.30440669,"eccentricity":0.0007712,"inclination_deg":45.3924,"raan_deg":318.9456,"arg_perigee_deg":285.3703,"mean_anomaly_deg":74.6335,"bstar":0.00047078,"rev_number":4913,"period_min":94.090547197815,"perigee_km":469.21181832778,"apogee_km":479.78132034513,"semimajor_km":6852.6335693365,"source":"CELESTRAK","updated_at":"2026-09-20T09:00:34.878614Z"}}}